GW1378 Weather Reports


time (UTC)temp
F
wind
direction
speed
knots
gust
knots
rain 1hr
in
rain 24hr
in
rain mn
in
humidity
%
barometer
mb
20260508043005 38 288 0.0 0.0 0.00 0.13 0.13 73 1032.8
20260508041505 39 288 0.0 0.0 0.00 0.13 0.13 72 1032.8
20260508040005 40 288 0.0 0.9 0.00 0.13 0.13 67 1033.2
20260508034511 41 288 0.0 0.0 0.00 0.13 0.13 66 1033.1
20260508033004 42 288 0.0 0.9 0.00 0.13 0.13 67 1032.9
20260508031503 43 288 0.0 0.0 0.00 0.13 0.13 66 1033.1
20260508030003 44 288 0.0 0.9 0.00 0.13 0.13 59 1033.1
20260508024502 45 288 0.0 0.9 0.00 0.13 0.13 59 1033.1
20260508023004 46 288 0.0 0.9 0.00 0.13 0.13 56 1033.1
20260508021502 47 327 0.0 1.7 0.00 0.13 0.13 53 1033.0
20260508020001 48 328 1.7 7.0 0.00 0.13 0.13 48 1032.8
20260508014501 48 281 0.0 3.5 0.00 0.13 0.13 49 1032.8
20260508013101 48 305 0.0 0.9 0.00 0.13 0.13 56 1032.7
20260508011614 49 304 0.0 2.6 0.00 0.13 0.13 55 1032.6
20260508004558 50 105 0.0 2.6 0.00 0.14 0.13 50 1032.9
20260508003058 52 342 0.0 5.2 0.00 0.14 0.13 47 1032.8
20260508001557 54 5 2.6 7.8 0.00 0.14 0.13 39 1032.7
20260508000113 54 269 1.7 7.8 0.00 0.14 0.13 39 1033.0
20260507234554 55 313 1.7 7.8 0.00 0.18 0.13 38 1033.2
20260507233053 56 36 1.7 7.0 0.00 0.18 0.13 39 1033.2
20260507231559 57 300 3.5 9.6 0.00 0.18 0.13 34 1033.3
20260507230051 58 248 2.6 9.6 0.00 0.18 0.13 38 1033.4
20260507224551 57 279 0.9 7.8 0.00 0.21 0.13 36 1033.6
20260507223046 56 172 1.7 7.0 0.00 0.21 0.13 43 1033.7
20260507221543 54 250 1.7 10.4 0.00 0.21 0.13 41 1034.0
20260507220041 55 318 3.5 9.6 0.00 0.21 0.13 37 1034.3
20260507214542 53 331 1.7 10.4 0.00 0.28 0.13 42 1034.7
20260507213040 52 347 0.9 10.4 0.00 0.28 0.13 46 1035.0
20260507211543 51 184 1.7 7.0 0.00 0.28 0.13 50 1035.5
20260507210030 53 229 3.5 7.0 0.00 0.28 0.13 44 1036.0
20260507204527 51 65 1.7 8.7 0.00 0.34 0.13 49 1036.3
20260507203026 49 305 0.9 5.2 0.00 0.34 0.13 54 1036.5
20260507201523 50 328 0.0 3.5 0.00 0.34 0.13 50 1036.9
20260507200021 50 296 0.9 7.0 0.00 0.34 0.13 48 1037.2
20260507194521 50 222 0.0 6.1 0.01 0.35 0.13 48 1037.2
20260507193022 51 355 1.7 8.7 0.01 0.35 0.13 49 1037.3
20260507191516 50 302 0.9 2.6 0.02 0.35 0.13 54 1037.4
20260507190017 49 355 0.9 3.5 0.04 0.35 0.13 58 1037.7
20260507184509 46 299 1.7 7.8 0.05 0.35 0.12 61 1037.8
20260507183010 45 254 0.0 10.4 0.06 0.35 0.12 61 1037.9
20260507181506 46 100 0.0 0.0 0.05 0.34 0.11 68 1038.0
20260507180002 43 134 0.0 0.0 0.04 0.32 0.09 79 1038.4
20260507174635 38 135 0.0 0.0 0.02 0.30 0.07 83 1039.0
20260507173057 37 135 0.0 0.0 0.02 0.28 0.06 84 1039.1
20260507171610 37 135 0.0 0.0 0.02 0.28 0.06 84 1039.2
20260507170057 36 135 0.0 0.0 0.01 0.28 0.05 85 1039.4
20260507164556 36 135 0.0 0.0 0.02 0.28 0.05 85 1039.7
20260507163054 36 135 0.0 0.0 0.01 0.27 0.04 86 1039.8
20260507161556 35 135 0.0 0.0 0.02 0.27 0.04 86 1039.9
20260507160113 35 135 0.0 0.0 0.02 0.27 0.04 86 1040.1
20260507154552 36 135 0.0 0.0 0.02 0.26 0.03 86 1040.4
20260507153052 36 135 0.0 0.0 0.02 0.26 0.03 86 1040.4
20260507151557 37 135 0.0 0.0 0.02 0.25 0.02 85 1040.6
20260507150050 37 135 0.0 0.9 0.02 0.25 0.02 83 1040.7
20260507144547 36 135 0.0 0.9 0.01 0.24 0.01 82 1040.9
20260507143043 34 135 0.0 0.0 0.01 0.24 0.01 85 1041.2
20260507141539 31 135 0.0 0.0 0.00 0.23 0.00 84 1041.1
20260507140044 28 135 0.0 0.0 0.00 0.23 0.00 84 1041.3
20260507134531 26 135 0.0 0.9 0.00 0.23 0.00 85 1041.4
20260507133026 24 135 0.0 0.9 0.00 0.23 0.00 85 1041.4
20260507131534 21 135 0.0 0.0 0.00 0.23 0.00 86 1041.2
20260507130017 20 135 0.0 0.0 0.00 0.23 0.00 87 1041.2
20260507124520 19 135 0.0 0.0 0.00 0.23 0.00 87 1040.9
20260507123021 18 135 0.0 0.0 0.00 0.23 0.00 87 1041.0
20260507121513 17 135 0.0 0.9 0.00 0.23 0.00 87 1040.7
20260507120024 17 135 0.0 0.0 0.00 0.23 0.00 87 1040.8
20260507114508 17 135 0.0 0.0 0.00 0.23 0.00 88 1040.5
20260507113008 16 135 0.0 0.0 0.00 0.23 0.00 87 1040.6
20260507111507 17 135 0.0 0.0 0.00 0.23 0.00 87 1040.5
20260507110007 16 135 0.0 0.0 0.00 0.23 0.00 87 1040.5
20260507104506 16 135 0.0 0.9 0.00 0.23 0.00 87 1040.6
20260507103005 16 135 0.0 0.0 0.00 0.23 0.00 88 1040.7
20260507101507 16 135 0.0 0.0 0.00 0.23 0.00 88 1040.5
20260507100005 16 135 0.0 0.0 0.00 0.23 0.00 88 1040.2
20260507094503 16 135 0.0 0.0 0.00 0.23 0.00 87 1040.3
20260507093003 16 135 0.0 0.0 0.00 0.23 0.00 87 1040.4
20260507091501 16 135 0.0 0.0 0.00 0.23 0.00 87 1040.4
20260507090059 17 135 0.0 0.9 0.00 0.23 0.00 87 1040.3
20260507084602 17 135 0.0 0.9 0.00 0.23 0.00 87 1039.9
20260507083056 17 135 0.0 0.0 0.00 0.23 0.00 87 1040.1
20260507081555 18 135 0.0 0.0 0.00 0.23 0.00 87 1040.2
20260507080055 18 135 0.0 0.0 0.00 0.23 0.00 87 1040.3
20260507074554 18 135 0.0 0.0 0.00 0.23 0.00 87 1040.1
20260507073058 18 135 0.0 1.7 0.00 0.23 0.00 87 1040.0
20260507071553 18 135 0.0 1.7 0.00 0.23 0.00 87 1040.0
20260507070104 18 134 0.0 1.7 0.00 0.23 0.00 87 1039.9
20260507064549 18 134 0.0 0.0 0.00 0.23 0.00 87 1040.0
20260507063052 19 134 0.0 0.9 0.00 0.23 0.00 87 1039.8
20260507061544 19 134 0.0 0.0 0.00 0.23 0.00 87 1039.4
20260507060044 20 134 0.0 0.0 0.00 0.23 0.00 87 1039.2
20260507054541 20 134 0.0 0.0 0.00 0.23 0.23 87 1039.1
20260507053038 21 134 0.0 0.0 0.00 0.23 0.23 87 1039.1
20260507051534 22 134 0.0 0.0 0.00 0.23 0.23 87 1038.6
20260507050054 22 134 0.0 0.0 0.00 0.23 0.23 87 1038.4
20260507044536 23 134 0.0 0.0 0.00 0.23 0.23 87 1038.4